Tracking 19193 objects as of 22-Jun-2018
HD Live streaming from Space Station
objects crossing your sky now

FENGYUN 1C DEB

Track FENGYUN 1C DEB now!
10-day predictions


NORAD ID: 35230
Int'l Code: 1999-025DQN
Perigee: 760.6 km
Apogee: 856.0 km
Inclination: 98.3 °
Period: 100.9 minutes
Semi major axis: 7179 km
RCS: 0.0022 m2 (small)
Launch date: May 10, 1999
Source: People's Republic of China (PRC)
Launch site: Taiyaun Space Center, China (TSC)

Note: This is SATELLITE DEBRIS
aabbcc
Your satellite tracking list
Your tracking list is empty




NASA's NSSDC Master Catalog

Two Line Element Set (TLE):
1 35230U 99025DQN 18172.72516233  .00000966  00000-0  40276-3 0  9999
2 35230  98.3409   2.7390 0066438  20.3555 340.0252 14.27196391501977
Source of the keplerian elements: AFSPC